Regional Weather Roundup
Issued by NWS San Angelo, TX

Home | Current Version | Previous Version | Text Only | Print | Product List | Glossary On
Versions: 1 2 3 4 5 6 7 8 9 10 11 12 13 14 15 16 17 18 19 20 21 22 23 24 25 26 27 28 29 30 31 32 33 34 35 36 37 38 39 40 41 42 43 44 45 46 47 48 49 50
000
ASUS44 KSJT 270510
RWRSJT
WEST CENTRAL TEXAS REGIONAL WEATHER ROUNDUP
NATIONAL WEATHER SERVICE SAN ANGELO TX
1100 PM CST SUN FEB 26 2017

NOTE: "FAIR" INDICATES FEW OR NO CLOUDS BELOW 12,000 FEET WITH NO
SIGNIFICANT WEATHER AND/OR OBSTRUCTIONS TO VISIBILITY.

TXZ049-054-064>066-071>073-076>078-098-099-113-114-127-128-139-140-
154-155-168>170-270600
...LOCATIONS ACROSS WEST CENTRAL TEXAS...

CITY           SKY/WX    TMP DP  RH WIND       PRES   REMARKS
SAN ANGELO     CLOUDY    56  49  77 S10       29.89R
ABILENE        CLEAR     51  46  83 SE9       29.89S
DYESS AFB      CLEAR     49  37  63 S8        29.88S
JUNCTION       PTCLDY    52  50  93 NE3       29.90S
SWEETWATER     CLEAR     58  27  30 NE6       29.93R
BROWNWOOD      CLEAR     55  55 100 CALM      29.90S FOG
COLEMAN        CLEAR     57  53  87 S5        29.89S
SONORA         MOCLDY    57  54  88 CALM      29.94S
OZONA          FAIR      54  43  66 MISG      29.93R
BRADY          NOT AVBL
$$

TEXAS PANHANDLE/OKLAHOMA PANHANDLE

CITY           SKY/WX    TMP DP  RH WIND       PRES   REMARKS
AMARILLO       PTCLDY    46  20  35 SW12      29.87S
BORGER         CLEAR     42  24  49 SE7       29.86S WCI  38
CANADIAN       CLEAR     39  28  66 SE6       29.90S WCI  34
DALHART        PTCLDY    34  12  40 W9        29.85S WCI  27
DUMAS          CLEAR     44  14  29 W16       29.84R WCI  37
GUYMON         NOT AVBL
HEREFORD       CLEAR     37  22  53 W7        29.90S WCI  32
PAMPA          CLEAR     42  31  63 SE12      29.89S WCI  36
PERRYTON       PTCLDY    39  25  56 E14       29.87F WCI  31
$$

SOUTHERN PANHANDLE/SOUTH PLAINS/ROLLING PLAINS

CITY           SKY/WX    TMP DP  RH WIND       PRES   REMARKS
LUBBOCK        PTCLDY    48  19  31 CALM      29.90R
SNYDER         CLOUDY    59  28  31 N3        29.91R
CHILDRESS      MOCLDY    47  33  58 SE8       29.89S
SEMINOLE       CLOUDY    51  20  29 N6        29.93R
$$

PERMIAN BASIN

CITY           SKY/WX    TMP DP  RH WIND       PRES   REMARKS
MIDLAND        CLOUDY    54  26  34 CALM      29.91R
ODESSA         CLOUDY    60  19  20 CALM      29.92R
WINK           MOCLDY    56  23  27 E8        29.90R
$$

FAR WEST/SOUTHWEST MOUNTAINS/TRANS PECOS

CITY           SKY/WX    TMP DP  RH WIND       PRES   REMARKS
ALPINE         CLOUDY    48  15  26 SW6       30.03R
DRYDEN           N/A     59  45  59 N9        29.87R
EL PASO        PTCLDY    57  14  18 CALM      29.94R
FORT STOCKTON  PTCLDY    59  37  44 S10       29.92R
GUADALUPE PASS PTCLDY    51  18  27 W29         N/A
MARFA          CLOUDY    43  12  28 N3        30.00R
PECOS          PTCLDY    55  21  26 W6        29.92R
$$

DALLAS/FORT WORTH METROPLEX

CITY           SKY/WX    TMP DP  RH WIND       PRES   REMARKS
DFW AIRPORT    CLOUDY    60  56  86 CALM      29.91R
FTW MEACHAM    CLOUDY    61  53  75 E3        29.90F
DAL-EXECUTIVE  CLOUDY    58  54  86 N3        29.92R
GRAND PRAIRIE  CLOUDY    59  52  76 CALM      29.93S
ADDISON        CLOUDY    59  54  83 E5        29.94R
MESQUITE       MOCLDY    58  54  86 E6        29.93S
LANCASTER      CLOUDY    56  53  89 CALM      29.93S
$$

NORTH CENTRAL TEXAS

CITY           SKY/WX    TMP DP  RH WIND       PRES   REMARKS
SHRMAN/DENISON CLOUDY    55  51  86 CALM      29.95S
GAINESVILLE    MOCLDY    50  48  92 E3        29.94F
BRIDGEPORT     CLOUDY    52  52 100 CALM      29.92S
DENTON         CLOUDY    57  53  86 SE3       29.91S
WAXAHACHIE     CLOUDY    58  55  91 CALM      29.93F
GRANBURY       CLOUDY    58  55  91 CALM      29.92S
$$

WESTERN NORTH TEXAS

CITY           SKY/WX    TMP DP  RH WIND       PRES   REMARKS
WICHITA FALLS  CLEAR     44  38  79 N9        29.91S WCI  39
VERNON         PTCLDY    45  32  61 E8        29.93R
BRECKENRIDGE   CLEAR     58  52  80 SE6       29.89S
COMANCHE       CLEAR     55  55 100 SE5       29.90S
$$

CENTRAL AND SOUTH CENTRAL TEXAS

CITY           SKY/WX    TMP DP  RH WIND       PRES   REMARKS
AUSTIN/BERGSTM CLOUDY    67  64  90 SE8       29.90S
WACO           CLOUDY    63  60  90 SE7       29.91F
HILLSBORO      CLOUDY    62  58  89 SE8       29.91F
TEMPLE         CLOUDY    65  61  87 SE9       29.91F
KILLEEN-GRAY   CLOUDY    61  60  95 SE6       29.90S
FORT HOOD      CLOUDY    63  61  94 SE7       29.88S FOG
GEORGETOWN     CLOUDY    64  61  88 SE5       29.91S
LAGO VISTA     CLOUDY    65  64  94 SE7       29.91S
SAN MARCOS     CLOUDY    66  64  94 S8        29.91F
NEW BRAUNFELS  CLOUDY    68  65  90 SE9       29.88F
RANDOLPH AFB   CLOUDY    68  68 100 SE8       29.88F
SAN ANTONIO    CLOUDY    69  64  84 SE13      29.88F
STINSON        CLOUDY    70  65  84 SE10      29.85F
PLEASANTON     NOT AVBL
LA GRANGE      CLOUDY    68  66  93 SE3       29.90F
GIDDINGS       CLOUDY   N/A N/A N/A SE6       29.93S
$$

EAST TEXAS

CITY           SKY/WX    TMP DP  RH WIND       PRES   REMARKS
PARIS          PTCLDY    50  45  81 E8        29.95F
CLARKSVILLE    NOT AVBL
TYLER          CLOUDY    64  58  80 SW5       29.94S
LONGVIEW       CLOUDY    64  59  83 S14       29.94S
PALESTINE      CLOUDY    65  60  83 SE6       29.96S
NACOGDOCHES    CLOUDY    64  57  77 S12G17    29.95S
$$

TEXAS HILL COUNTRY AND EDWARDS PLATEAU

CITY           SKY/WX    TMP DP  RH WIND       PRES   REMARKS
LLANO          CLOUDY    63  61  94 CALM      29.93S
HORSESHOE BAY    N/A     65  63  91 S7        29.91S
KERRVILLE      CLOUDY    56  55  95 W3        29.89F
FREDERICKSBRG  CLOUDY    58  57  95 CALM      29.90F
ROCKSPRINGS    CLEAR     54  54 100 SE3       29.91S
HONDO          CLOUDY    67  64  90 E9        29.86F
UVALDE         CLEAR     60  57  91 CALM      29.85F
DEL RIO        CLOUDY    61  56  83 CALM      29.83S
$$

SOUTHEAST TEXAS

CITY           SKY/WX    TMP DP  RH WIND       PRES   REMARKS
COLLEGE STN    CLOUDY    66  62  87 S10       29.94R
CALDWELL       NOT AVBL
CROCKETT       CLOUDY    64  59  82 S7        29.98S
BRENHAM        CLOUDY    68  64  86 SE6       29.94R
HUNTSVILLE     MOCLDY    66  60  81 SE8G18    29.94S
CONROE         CLOUDY    66  62  87 SE9       29.96F
HOUSTON BUSH   CLOUDY    67  64  90 SE8       29.96S
HOUSTON HOBBY  CLOUDY    69  65  86 SE9       29.96S
PERLAND        CLOUDY    71  65  81 SE12      29.98R
WHARTON        CLOUDY    69  65  87 SE12      29.94F
$$

THE UPPER TEXAS COAST

CITY           SKY/WX    TMP DP  RH WIND       PRES   REMARKS
ORANGE         CLOUDY    67  64  91 SE8       30.02S FOG
PORT ARTHUR    CLOUDY    68  63  84 E14       29.99S
GALVESTON      CLOUDY    69  67  93 SE12      29.97R
ANGLETON       CLOUDY    70  67  90 SE8       29.96S
BAY CITY       CLOUDY    70  68  93 SE8       29.94F
$$

TEXAS COASTAL BEND, RIO GRANDE PLAINS DEEP SOUTH TEXAS

CITY           SKY/WX    TMP DP  RH WIND       PRES   REMARKS
VICTORIA       CLOUDY    67  65  93 E8        29.93R FOG
BEEVILLE       FAIR      69  69 100 SE13G18   29.88F
ROCKPORT       CLEAR     70  66  87 S9        29.90F FOG
PORT ARANSAS   CLEAR     68  66  96 S7        29.91S FOG
PORT LAVACA    CLOUDY    67  67 100 CALM      29.93R FOG
CORPUS CHRISTI CLEAR     69  67  93 S16       29.88F
KINGSVILLE NAS CLEAR     70  69  97 SE13      29.87F
COTULLA        CLEAR     72  64  76 SE10      29.83R
LAREDO         CLEAR     73  64  73 SE16      29.83S
BROWNSVILLE    CLEAR     71  68  90 SE9       29.90F
PORT ISABEL    CLEAR     71  68  90 S9        29.90R
HEBBRONVILLE   CLEAR     69  63  82 S12       29.88S
MCALLEN        CLEAR     73  67  81 SE10      29.89R
WESLACO        CLOUDY    70  67  89 S8        29.89S
FALFURRIAS     CLEAR    N/A N/A N/A SE8       29.88S
EDINBURG       CLEAR     72  67  82 SE9       29.90S
$$



USA.gov is the U.S. government's official web portal to all federal, state and local government web resources and services.